Regional Weather Roundup
Issued by NWS

Home | Current Version | Previous Version | Graphics & Text | Print | Product List | Glossary On
Versions: 1 2 3 4 5 6 7 8 9 10 11 12 13 14 15 16 17 18 19 20 21 22 23 24 25 26 27 28 29 30 31 32 33 34 35 36 37 38 39 40 41 42 43 44 45 46 47 48 49 50
000
ASUS43 KTOP 271359
RWRKS

WEATHER ROUNDUP FOR KANSAS
NATIONAL WEATHER SERVICE GOODLAND KS
900 AM CDT TUE JUN 27 2017

NOTE:  "FAIR" INDICATES FEW OR NO CLOUDS BELOW 12,000 FEET WITH NO
SIGNIFICANT WEATHER AND/OR OBSTRUCTIONS TO VISIBILITY.

KSZ001>006-013>018-027>032-041>047-271500-
NORTHWEST KANSAS

CITY           SKY/WX    TMP DP  RH WIND       PRES   REMARKS
GOODLAND       FOG       60  60 100 S12       30.00S VSB 1/2
HAYS           CLOUDY    66  63  90 SE14      30.00F
HILL CITY      CLOUDY    64  63  96 SE13      30.00F FOG
RUSSELL        CLOUDY    68  62  81 SE17      30.00F
$$

KSZ061>065-074>080-084>089-271500-
SOUTHWEST KANSAS

CITY           SKY/WX    TMP DP  RH WIND       PRES   REMARKS
DODGE CITY     SUNNY     74  65  73 S18       30.00S
ELKHART          N/A     68  49  50 S12         N/A
GARDEN CITY    SUNNY     74  59  59 SW13      29.99S
GREAT BEND     CLOUDY    68  64  87 SE16      30.01F
LIBERAL        SUNNY     76  59  55 SW13      30.04S
$$

KSZ066>073-081>083-090>101-271500-
SOUTHEAST KANSAS

CITY           SKY/WX    TMP DP  RH WIND       PRES   REMARKS
CHANUTE        CLOUDY    66  63  90 SE6       30.10R
COFFEYVILLE    CLOUDY    73  66  78 S6        30.09S
HUTCHINSON     CLOUDY    67  62  84 SE13      30.03F
NEWTON         CLOUDY    64  63  96 SE13      30.06R
PARSONS        MOSUNNY   72  66  81 VRB5      30.10S
WICHITA INTL   CLOUDY    67  64  90 E12       30.05R
WICHITA JABRA  CLOUDY    66  64  93 S10       30.05S THUNDER
WINFIELD       CLOUDY    69  65  86 SE8       30.08R
$$

KSZ007>012-019>026-033>040-048>060-102>105-271500-
NORTHEAST KANSAS

CITY           SKY/WX    TMP DP  RH WIND       PRES   REMARKS
CONCORDIA      MOSUNNY   65  60  84 SE14      30.04F
EMPORIA        CLOUDY    63  62  97 SE9       30.08S
LAWRENCE       SUNNY     66  60  81 E14       30.10F
MANHATTAN      MOSUNNY   67  61  81 SE6       30.06F
OLATHE IND     SUNNY     67  57  70 SE13G22   30.11F
OLATHE EXE     SUNNY     66  60  81 SE9       30.12S
SALINA         CLOUDY    69  63  81 SE14      30.03F
TOPEKA BILLARD SUNNY     66  62  87 SE10G18   30.09S
TOPEKA FORBES  MOSUNNY   67  61  81 SE12      30.09S
$$




USA.gov is the U.S. government's official web portal to all federal, state and local government web resources and services.